Total_Precipitation_Accumulation
0.04 0.03 0.03 0.04 0.03 0.02 0.00 0.00 0.00 0.00 0.00 0.00 0.00 0.00 0.00 0.00 0.00 0.01 0.01 0.01 0.02 0.04 0.08 0.16 0.21 0.25 0.28 0.30 0.30 0.30 0.28 0.28 0.31 0.33 0.36 0.39 0.39 0.39 0.41 0.41 0.42 0.42 0.43 0.46 0.45 0.46 0.44 0.38 0.35
0.04 0.03 0.05 0.06 0.03 0.01 0.00 0.00 0.00 0.00 0.00 0.00 0.00 0.00 0.00 0.00 0.00 0.00 0.00 0.01 0.01 0.02 0.06 0.12 0.21 0.26 0.30 0.31 0.32 0.32 0.31 0.31 0.33 0.36 0.39 0.40 0.41 0.43 0.44 0.42 0.41 0.42 0.45 0.48 0.50 0.49 0.47 0.42 0.42
0.05 0.06 0.08 0.07 0.03 0.00 0.00 0.00 0.00 0.00 0.00 0.00 0.00 0.00 0.00 0.00 0.00 0.01 0.01 0.01 0.01 0.02 0.04 0.11 0.22 0.28 0.32 0.35 0.36 0.35 0.36 0.36 0.38 0.39 0.41 0.45 0.46 0.47 0.47 0.42 0.38 0.38 0.38 0.40 0.43 0.49 0.53 0.52 0.50
0.08 0.13 0.12 0.07 0.01 0.00 0.00 0.00 0.00 0.00 0.00 0.00 0.00 0.00 0.00 0.00 0.00 0.01 0.01 0.01 0.02 0.02 0.04 0.12 0.22 0.30 0.35 0.39 0.39 0.38 0.40 0.41 0.44 0.45 0.45 0.50 0.55 0.54 0.51 0.47 0.43 0.38 0.36 0.40 0.42 0.49 0.58 0.56 0.49
0.12 0.16 0.13 0.06 0.01 0.00 0.00 0.00 0.00 0.00 0.00 0.00 0.00 0.00 0.00 0.00 0.00 0.01 0.01 0.02 0.03 0.04 0.07 0.13 0.22 0.32 0.37 0.41 0.43 0.43 0.46 0.47 0.49 0.50 0.51 0.55 0.58 0.57 0.53 0.52 0.47 0.42 0.40 0.40 0.41 0.45 0.55 0.54 0.49
0.16 0.18 0.11 0.04 0.01 0.00 0.00 0.00 0.00 0.00 0.00 0.00 0.00 0.00 0.00 0.00 0.00 0.00 0.00 0.01 0.02 0.03 0.05 0.11 0.23 0.33 0.39 0.44 0.48 0.49 0.53 0.57 0.57 0.57 0.61 0.63 0.62 0.60 0.57 0.54 0.48 0.46 0.43 0.41 0.40 0.42 0.48 0.48 0.45
0.16 0.16 0.08 0.03 0.01 0.00 0.00 0.00 0.00 0.00 0.00 0.00 0.00 0.00 0.00 0.00 0.00 0.00 0.01 0.01 0.03 0.05 0.08 0.13 0.23 0.33 0.41 0.49 0.54 0.57 0.61 0.63 0.64 0.66 0.68 0.71 0.70 0.69 0.64 0.56 0.49 0.47 0.46 0.45 0.44 0.41 0.38 0.38 0.38
0.19 0.19 0.09 0.03 0.02 0.01 0.00 0.00 0.00 0.01 0.00 0.00 0.00 0.00 0.00 0.01 0.01 0.01 0.02 0.04 0.06 0.09 0.12 0.16 0.25 0.32 0.40 0.50 0.57 0.64 0.68 0.70 0.76 0.79 0.74 0.74 0.79 0.81 0.76 0.64 0.55 0.51 0.48 0.45 0.44 0.42 0.34 0.29 0.30
0.24 0.28 0.11 0.03 0.02 0.02 0.01 0.01 0.01 0.01 0.01 0.01 0.00 0.00 0.01 0.02 0.02 0.04 0.05 0.08 0.12 0.14 0.17 0.21 0.30 0.38 0.43 0.49 0.56 0.69 0.80 0.84 0.89 0.93 0.85 0.84 0.85 0.82 0.76 0.66 0.61 0.54 0.50 0.45 0.45 0.44 0.43 0.36 0.31
0.29 0.23 0.08 0.02 0.02 0.03 0.03 0.03 0.03 0.04 0.02 0.01 0.01 0.01 0.02 0.03 0.05 0.07 0.08 0.11 0.13 0.16 0.20 0.26 0.33 0.41 0.52 0.57 0.64 0.73 0.82 0.89 0.90 0.81 0.84 0.87 0.82 0.79 0.74 0.71 0.69 0.61 0.56 0.54 0.51 0.47 0.45 0.41 0.32
0.22 0.15 0.06 0.03 0.03 0.04 0.06 0.06 0.05 0.06 0.05 0.03 0.03 0.03 0.04 0.05 0.07 0.08 0.10 0.12 0.14 0.16 0.22 0.29 0.37 0.47 0.57 0.62 0.67 0.72 0.77 0.82 0.85 0.78 0.73 0.76 0.80 0.79 0.80 0.72 0.70 0.67 0.63 0.63 0.59 0.57 0.47 0.41 0.38
0.16 0.10 0.07 0.05 0.05 0.07 0.07 0.08 0.07 0.06 0.06 0.05 0.05 0.04 0.05 0.08 0.09 0.11 0.12 0.14 0.17 0.22 0.26 0.32 0.41 0.50 0.58 0.65 0.68 0.69 0.72 0.73 0.73 0.75 0.76 0.74 0.75 0.69 0.67 0.66 0.61 0.58 0.55 0.56 0.59 0.55 0.51 0.43 0.39
0.14 0.09 0.07 0.07 0.08 0.09 0.10 0.11 0.09 0.05 0.05 0.06 0.07 0.07 0.07 0.09 0.11 0.14 0.16 0.17 0.19 0.24 0.30 0.36 0.44 0.52 0.60 0.70 0.75 0.74 0.73 0.68 0.68 0.72 0.79 0.77 0.70 0.65 0.64 0.62 0.61 0.58 0.52 0.47 0.46 0.44 0.42 0.39 0.36
0.14 0.12 0.09 0.09 0.10 0.12 0.15 0.13 0.12 0.07 0.05 0.08 0.09 0.10 0.09 0.10 0.13 0.17 0.21 0.22 0.21 0.26 0.33 0.40 0.48 0.56 0.64 0.69 0.73 0.74 0.75 0.75 0.77 0.76 0.74 0.79 0.79 0.68 0.66 0.67 0.62 0.58 0.56 0.50 0.45 0.39 0.37 0.35 0.32
0.18 0.20 0.16 0.11 0.10 0.11 0.20 0.23 0.12 0.06 0.07 0.09 0.10 0.12 0.12 0.11 0.13 0.16 0.22 0.26 0.24 0.28 0.37 0.46 0.50 0.61 0.71 0.70 0.77 0.78 0.78 0.80 0.82 0.79 0.78 0.82 0.84 0.83 0.74 0.69 0.66 0.60 0.60 0.59 0.56 0.51 0.43 0.39 0.33
0.28 0.36 0.29 0.15 0.12 0.13 0.26 0.26 0.09 0.06 0.10 0.11 0.12 0.12 0.12 0.11 0.11 0.14 0.21 0.29 0.29 0.32 0.39 0.47 0.55 0.62 0.72 0.76 0.79 0.84 0.85 0.84 0.86 0.89 0.88 0.88 0.90 0.90 0.89 0.80 0.70 0.63 0.65 0.67 0.66 0.64 0.57 0.47 0.40
0.42 0.40 0.28 0.18 0.16 0.19 0.27 0.23 0.09 0.08 0.12 0.13 0.14 0.13 0.12 0.12 0.11 0.12 0.19 0.27 0.32 0.34 0.40 0.49 0.59 0.62 0.70 0.84 0.84 0.85 0.90 0.93 0.94 0.99 1.02 0.97 0.95 0.94 0.96 0.94 0.85 0.74 0.72 0.69 0.65 0.62 0.59 0.54 0.47
0.41 0.30 0.23 0.19 0.19 0.22 0.24 0.19 0.12 0.10 0.13 0.14 0.15 0.13 0.12 0.12 0.10 0.12 0.18 0.24 0.33 0.38 0.43 0.52 0.62 0.68 0.75 0.92 1.03 0.97 0.97 0.99 1.02 1.02 1.00 1.02 1.04 0.95 0.91 0.95 0.95 0.86 0.79 0.74 0.67 0.62 0.55 0.50 0.48
0.27 0.32 0.28 0.19 0.18 0.24 0.24 0.18 0.12 0.11 0.11 0.12 0.12 0.12 0.12 0.11 0.10 0.11 0.17 0.23 0.32 0.43 0.48 0.56 0.62 0.72 0.85 0.95 1.09 1.05 0.98 0.98 1.00 0.98 0.97 0.95 1.02 1.04 0.96 0.90 0.90 0.90 0.83 0.74 0.70 0.68 0.65 0.59 0.52
0.34 0.38 0.30 0.22 0.18 0.28 0.28 0.19 0.11 0.11 0.11 0.11 0.10 0.12 0.14 0.11 0.10 0.12 0.18 0.23 0.29 0.43 0.49 0.55 0.65 0.75 0.82 0.89 0.97 1.03 1.00 0.99 1.02 1.01 0.99 0.97 0.96 1.00 1.03 0.95 0.86 0.81 0.80 0.78 0.71 0.70 0.69 0.67 0.60
0.41 0.34 0.26 0.25 0.23 0.30 0.36 0.29 0.14 0.12 0.10 0.10 0.10 0.10 0.15 0.16 0.13 0.14 0.21 0.27 0.31 0.41 0.49 0.55 0.66 0.74 0.81 0.96 1.05 1.12 1.22 1.19 1.17 1.16 1.06 0.98 0.95 0.93 0.96 0.96 0.91 0.83 0.75 0.73 0.70 0.64 0.64 0.65 0.59
0.44 0.23 0.22 0.26 0.41 0.48 0.42 0.48 0.18 0.14 0.13 0.12 0.10 0.09 0.12 0.14 0.14 0.15 0.20 0.29 0.33 0.39 0.50 0.58 0.69 0.75 0.79 0.98 1.13 1.08 1.16 1.13 1.04 0.99 1.01 0.98 0.94 0.91 0.89 0.89 0.89 0.89 0.80 0.69 0.65 0.63 0.62 0.65 0.65
0.34 0.21 0.25 0.33 0.47 0.56 0.42 0.49 0.25 0.14 0.14 0.11 0.09 0.08 0.10 0.12 0.13 0.13 0.14 0.20 0.29 0.36 0.47 0.58 0.72 0.81 0.83 0.91 1.09 1.12 1.06 1.01 0.98 1.02 1.01 1.01 1.00 0.96 0.90 0.86 0.85 0.83 0.81 0.72 0.63 0.61 0.62 0.65 0.66
0.32 0.39 0.44 0.49 0.75 0.94 0.37 0.37 0.29 0.23 0.23 0.15 0.09 0.08 0.09 0.10 0.12 0.12 0.11 0.13 0.25 0.36 0.46 0.55 0.67 0.80 0.86 0.85 0.97 1.11 1.07 1.01 0.97 1.03 1.07 1.05 1.04 1.01 0.96 0.87 0.83 0.78 0.73 0.70 0.63 0.56 0.58 0.60 0.60
0.53 0.82 1.17 1.19 1.22 0.77 0.17 0.25 0.29 0.22 0.19 0.19 0.14 0.09 0.09 0.10 0.13 0.14 0.12 0.13 0.20 0.32 0.43 0.52 0.62 0.71 0.78 0.81 0.85 0.93 1.05 1.02 0.94 0.89 0.95 1.03 1.06 1.00 0.94 0.90 0.82 0.76 0.70 0.68 0.67 0.63 0.58 0.57 0.58
0.55 0.75 0.99 0.90 0.58 0.23 0.10 0.21 0.22 0.15 0.12 0.12 0.10 0.08 0.08 0.08 0.09 0.11 0.13 0.15 0.18 0.23 0.30 0.42 0.53 0.64 0.76 0.82 0.81 0.85 0.94 1.06 0.97 0.90 0.87 0.91 0.95 0.91 0.84 0.84 0.82 0.75 0.69 0.69 0.71 0.69 0.63 0.59 0.59
0.52 0.56 0.49 0.63 0.46 0.30 0.20 0.17 0.14 0.07 0.06 0.08 0.08 0.07 0.07 0.07 0.08 0.10 0.12 0.15 0.17 0.22 0.25 0.36 0.44 0.57 0.72 0.84 0.85 0.84 0.87 0.95 0.98 0.90 0.86 0.87 0.87 0.87 0.86 0.84 0.83 0.79 0.77 0.76 0.76 0.75 0.67 0.63 0.62
0.44 0.52 0.65 0.93 0.79 0.42 0.22 0.19 0.20 0.12 0.10 0.09 0.09 0.09 0.07 0.07 0.09 0.11 0.12 0.15 0.17 0.20 0.23 0.31 0.39 0.47 0.57 0.73 0.88 0.88 0.82 0.82 0.90 0.92 0.91 0.86 0.85 0.86 0.87 0.90 0.90 0.85 0.80 0.82 0.84 0.79 0.71 0.69 0.67
0.54 0.69 0.88 0.91 0.65 0.47 0.29 0.24 0.24 0.17 0.14 0.13 0.11 0.10 0.09 0.08 0.09 0.10 0.13 0.15 0.17 0.21 0.26 0.32 0.39 0.44 0.49 0.59 0.75 0.86 0.85 0.85 0.90 0.94 0.93 0.90 0.85 0.85 0.84 0.84 0.91 0.93 0.87 0.81 0.86 0.85 0.78 0.77 0.72
0.47 0.61 0.77 0.92 0.64 0.34 0.30 0.24 0.19 0.14 0.13 0.13 0.11 0.09 0.08 0.06 0.07 0.07 0.09 0.15 0.18 0.23 0.28 0.33 0.41 0.43 0.45 0.51 0.62 0.74 0.83 0.86 0.91 0.91 0.96 1.00 0.98 0.88 0.80 0.79 0.85 0.92 0.91 0.85 0.83 0.83 0.80 0.81 0.77